Home   Weather   San Antonio   Past weeks
Flag for USA

Past Weather in San Antonio, Texas, USA — Yesterday and Last 2 Weeks

Now
64 °F

Broken clouds.


Feels Like: 64 °F
Forecast: 74 / 61 °F
Wind: 10 mph from North

Location: San Antonio International Airport

Current Time: Oct 16, 2019 at 10:32:33 am

Latest Report: Oct 16, 2019 at 9:51 am


Visibility: 10 mi

Pressure: 30.06 "Hg

Humidity: 61%

Dew Point: 50 °F

Location of San AntonioLocation

Past Weather in San Antonio — Graph

°F

San Antonio Temperature Yesterday

Maximum temperature yesterday: 92 °F (at 3:51 pm)
Minimum temperature yesterday: 74 °F (at 9:51 pm)
Average temperature yesterday: 81 °F

High & Low Weather Summary for the Past Weeks

 TemperatureHumidityPressure
High95 °F (Oct 10, 3:51 pm)97% (Oct 2, 8:51 am)30.23 "Hg (Oct 2, 8:51 am)
Low50 °F (Oct 11, 1:51 pm)17% (Oct 12, 3:51 pm)29.69 "Hg (Oct 10, 5:51 pm)
Average77 °F62%29.95 "Hg
* Reported Oct 1 9:51 am — Oct 16 9:26 am, San Antonio. Weather by CustomWeather, © 2019

Note: Actual official high and low records may vary slightly from our data, if they occured in-between our weather recording intervals... More about our weather records

Advertising

San Antonio Weather History for the Previous 24 Hours

Scroll right to see more
 ConditionsComfort  
Time TempWeatherWind HumidityBarometerVisibility
9:26 am
Wed, Oct 16
63 °FCloudy.13 mph68%30.10 "Hg10 mi
8:51 am64 °FMostly cloudy.18 mph70%30.03 "Hg10 mi
7:51 am66 °FLight rain. Mostly cloudy.20 mph84%30.00 "Hg10 mi
7:26 am67 °FLight rain. Mostly cloudy.14 mph90%30.03 "Hg10 mi
6:51 am67 °FRain. Mostly cloudy.13 mph90%29.96 "Hg8 mi
6:26 am67 °FHeavy rain. Fog.10 mph90%30.02 "Hg6 mi
5:51 am67 °FThunderstorms. Overcast.10 mph90%29.96 "Hg9 mi
5:20 am68 °FStrong thunderstorms. Fog.9 mph87%30.01 "Hg6 mi
4:51 am68 °FRain. Mostly cloudy.12 mph87%29.93 "Hg10 mi
3:51 am72 °FLight rain. Mostly cloudy.13 mph84%29.92 "Hg10 mi
3:37 am73 °FLight rain. Mostly cloudy.8 mph88%29.99 "Hg10 mi
2:51 am73 °FThunderstorms. Mostly cloudy.5 mph94%29.91 "Hg7 mi
1:51 am74 °FThunderstorms. Passing clouds.6 mph91%29.89 "Hg10 mi
12:51 am75 °FMostly cloudy.No wind90%29.87 "Hg10 mi
11:51 pm
Tue, Oct 15
74 °FMostly cloudy.3 mph94%29.88 "Hg10 mi
11:03 pm76 °FMostly cloudy.5 mph85%29.93 "Hg10 mi
10:51 pm75 °FThunderstorms. Overcast.10 mph88%29.88 "Hg10 mi
9:51 pm74 °FThunderstorms. Mostly cloudy.5 mph91%29.85 "Hg10 mi
8:51 pm77 °FThunderstorms. Passing clouds.18 mph71%29.85 "Hg10 mi
7:51 pm80 °FThunderstorms. Passing clouds.9 mph60%29.82 "Hg10 mi
6:51 pm80 °FBroken clouds.12 mph56%29.81 "Hg10 mi
6:06 pm86 °FPartly sunny.21 mph52%29.86 "Hg10 mi
5:51 pm92 °FBroken clouds.No wind44%29.78 "Hg10 mi
4:51 pm92 °FBroken clouds.7 mph46%29.78 "Hg10 mi
3:51 pm92 °FPassing clouds.6 mph46%29.80 "Hg10 mi
2:51 pm90 °FScattered clouds.3 mph50%29.82 "Hg10 mi
1:51 pm89 °FBroken clouds.5 mph53%29.85 "Hg10 mi
12:51 pm87 °FBroken clouds.6 mph57%29.89 "Hg10 mi
11:51 am84 °FPartly sunny.3 mph63%29.90 "Hg10 mi
10:51 am82 °FPartly sunny.10 mph67%29.90 "Hg10 mi
Weather by CustomWeather, © 2019

See weather overview